Location: Unspecified
(47.6578°N, 23.5640°E)
Time: 06:37:07
(UTC+02:00)

ISS - Pass Details

Date: 15 December 2017
Orbit: 403 x 407 km, 51.6° (Epoch: 12 December)

Event Time Altitude Azimuth Distance (km) Brightness Sun altitude
Rises 17:19:34 0° 293° (WNW) 2,332 0.7 -7.4°
Reaches altitude 10° 17:21:40 10° 291° (WNW) 1,468 -0.3 -7.7°
Maximum altitude 17:24:56 66° 209° (SSW) 446 -3.4 -8.2°
Drops below altitude 10° 17:28:11 10° 126° (SE) 1,460 -1.3 -8.7°
Sets 17:30:16 0° 123° (ESE) 2,316 -0.3 -9.0°
